sat.trackr.live / text

‹ back to catalog

STARLINK-11615 [DTC]

NORAD 63274 · 2025-053K

PAYLOAD ACTIVE UNKNOWN

§ Identity

Operator
Country
US
Launch date
2025-03-15
Launch site
AFETR
Launch vehicle
Mass (kg)
RCS (m²)

Purposes: comms

External: N2YO · Heavens-Above · Gunter

§ Orbital elements

Epoch: 2026-09-20T22:00:03.000096Z

Period
91.67 min
Inclination
43.0007°
Eccentricity
0.0001859
Mean motion
15.70928913 rev/d
Perigee alt
355.0 km
Apogee alt
357.5 km
Semi-major
6,734.4 km
B*
-1.3218e-3
RAAN
15.5780°
Arg perigee
265.9604°
Mean anomaly
49.9153°
Rev number
593

§ Raw data

STARLINK-11615 [DTC]1 63274U 25053K   26263.91670139 -.00167319  00000+0 -13218-2 0  99972 63274  43.0007  15.5780 0001859 265.9604  49.9153 15.70928913  5932

JSON: /api/v1/satellites/63274 · /tle

For live sub-satellite position, see the globe view (requires WebGL).

§ Visibility from observer

Set your observer location to see the next 7 days of passes ≥ 10°. The values pass through the URL so the page stays shareable.

No JS? Fill the form by hand. The geolocation button needs JavaScript.